Preview of NWS' New Version of Forecast
This preview is not operational and should not be used for support decisions.

Regional Weather Roundup (RWR)

Issued by National Weather Service (NWS)

                            
000
ASUS45 KBOI 191310
RWRID 

IDAHO REGIONAL WEATHER ROUNDUP
NATIONAL WEATHER SERVICE BOISE ID
700 AM MDT FRI APR 19 2019

NOTE: "FAIR" INDICATES FEW OR NO CLOUDS BELOW 12000 FEET
WITH NO SIGNIFICANT WEATHER AND/OR OBSTRUCTIONS TO VISIBILITY

IDZ012-014-191400-
SOUTHWEST IDAHO

  
CITY           SKY/WX    TMP DP  RH WIND       PRES   REMARKS
BOISE          CLEAR     52  37  56 SE12      30.06S                  
CALDWELL       CLEAR     47  41  80 CALM      30.07S                  
MOUNTAIN HOME  CLEAR     44  44  99 CALM      30.08F                  
$$

IDZ016-017-191400-
SOUTHCENTRAL IDAHO

  
CITY           SKY/WX    TMP DP  RH WIND       PRES   REMARKS
BURLEY         CLEAR     41  35  79 CALM      30.14S                  
JEROME         CLEAR     47  35  63 NE12      30.14F                  
TWIN FALLS     CLEAR     44  38  79 S8        30.14S                  
$$

IDZ019>023-191400-
SOUTHEAST IDAHO

  
CITY           SKY/WX    TMP DP  RH WIND       PRES   REMARKS
IDAHO FALLS    CLEAR     35  32  88 CALM      30.21S                  
POCATELLO      CLEAR     38  34  85 NE7       30.19S WCI  33          
REXBURG        CLEAR     35  31  85 NE3       30.21F                  
$$

IDZ006-010-011-018-031-032-191400-
CENTRAL IDAHO MOUNTAINS

  
CITY           SKY/WX    TMP DP  RH WIND       PRES   REMARKS
MCCALL         CLEAR     31  28  89 CALM      30.13F                  
HAILEY         CLEAR     37  32  81 NW12      30.21F WCI  30          
STANLEY          N/A     25  21  85 CALM      30.26S                  
SALMON         CLEAR     36  33  89 CALM      30.17S                  
CHALLIS        CLEAR     40  30  67 CALM      30.19S                  
$$

IDZ002-004-006-007-026-191400-
NORTHERN IDAHO

  
CITY           SKY/WX    TMP DP  RH WIND       PRES   REMARKS
LEWISTON       MOCLDY    53  47  79 SE5       29.97F                  
LOWELL           N/A     44  42  93 N5        30.08F                  
COEUR D'ALENE  CLOUDY    54  47  77 SE10      29.96F                  
MULLAN PASS    LGT RAIN  43  38  82 VRB7      30.04F                  
$$